Surface/Precipitation History
12/16/2017 18:29  to  12/17/2017 18:29
Change End Date:
Date/Time
(MST)
Sf
Temp Chem Water Layer Surface Precipitation
Sfc Pvt Sub Frz Factor Pct Dpth DpthThk IcePct Cond Salin FI Type Intens Accum Rate
12/17/2017 18:27 Ice Warning 22.1F - 24F 32F 25 0% - - 100% 0 mhos 59 - None None - -
12/17/2017 18:25 Ice Warning 22.1F - 24F 32F 25 0% - - 100% 0 mhos 59 - None None - -
12/17/2017 18:15 Ice Warning 22.1F - 24F 32F 25 0% - - 100% 0 mhos 59 - None None - -
12/17/2017 18:12 Ice Warning 22.1F - 24F 32F 25 0% - - 100% 0 mhos 58 - None None - -
12/17/2017 18:05 Ice Warning 22.3F - 24F 32F 25 0% - - 100% 0 mhos 58 - None None - -
12/17/2017 17:57 Ice Warning 22.5F - 24F 32F 25 0% - - 100% 0 mhos 58 - None None - -
12/17/2017 17:54 Ice Warning 22.5F - 24F 32F 25 0% - - 100% 0 mhos 59 - None None - -
12/17/2017 17:44 Ice Warning 22.5F - 24F 32F 25 0% - - 100% 0 mhos 64 - None None - -
12/17/2017 17:42 Ice Warning 22.5F - 24F 32F 25 0% - - 100% 0 mhos 62 - None None - -
12/17/2017 17:34 Ice Warning 22.5F - 24F 32F 25 0% - - 100% 0 mhos 65 - None None - -
12/17/2017 17:27 Ice Warning 22.3F - 24F 32F 20 0% - - 100% 0 mhos 68 - None None - -
12/17/2017 17:24 Ice Warning 22.5F - 24F 32F 20 0% - - 100% 0 mhos 68 - None None - -
12/17/2017 17:14 Ice Warning 22.5F - 24F 32F 25 0% - - 100% 0 mhos 65 - None None - -
12/17/2017 17:12 Ice Warning 22.6F - 24F 32F 25 0% - - 100% 0 mhos 64 - None None - -
12/17/2017 17:04 Ice Warning 22.6F - 24F 32F 25 0% - - 100% 0 mhos 62 - None None - -
Date/Time
(MST)
Sf
Temp Chem Water Layer Surface Precipitation
Sfc Pvt Sub Frz Factor Pct Dpth DpthThk IcePct Cond Salin FI Type Intens Accum Rate
12/17/2017 16:57 Ice Warning 22.8F - 24F 32F 25 0% - - 100% 0 mhos 62 - None None - -
12/17/2017 16:54 Ice Warning 22.8F - 24F 32F 25 0% - - 100% 0 mhos 64 - None None - -
12/17/2017 16:44 Ice Warning 23.2F - 24F 32F 25 0% - - 100% 0 mhos 66 - None None - -
12/17/2017 16:42 Ice Warning 23.2F - 24F 32F 25 0% - - 100% 0 mhos 60 - None None - -
12/17/2017 16:34 Ice Warning 23.2F - 24F 32F 30 0% - - 100% 0 mhos 59 - None None - -
12/17/2017 16:27 Ice Warning 23.2F - 24F 32F 30 0% - - 100% 0 mhos 60 - None None - -
12/17/2017 16:24 Ice Warning 23.2F - 24F 32F 30 0% - - 100% 0 mhos 60 - None None - -
12/17/2017 16:14 Ice Warning 23.4F - 24F 32F 30 0% - - 100% 0 mhos 60 - None None - -
12/17/2017 16:12 Ice Warning 23.4F - 24F 32F 35 0% - - 100% 0 mhos 61 - None None - -
12/17/2017 16:04 Ice Warning 23.4F - 24F 32F 35 0% - - 100% 0 mhos 63 - None None - -
12/17/2017 15:57 Ice Warning 23.5F - 24F 32F 35 0% - - 100% 0 mhos 63 - None None - -
12/17/2017 15:54 Ice Warning 23.5F - 24F 32F 35 0% - - 100% 0 mhos 66 - None None - -
12/17/2017 15:44 Ice Warning 23.7F - 24F 32F 40 0% - - 99% 0 mhos 68 - None None - -
12/17/2017 15:42 Ice Warning 23.9F - 24F 32F 40 0% - - 99% 0 mhos 69 - None None - -
12/17/2017 15:34 Ice Warning 23.9F - 24F 32F 40 0% - - 99% 0 mhos 69 - None None - -
Date/Time
(MST)
Sf
Temp Chem Water Layer Surface Precipitation
Sfc Pvt Sub Frz Factor Pct Dpth DpthThk IcePct Cond Salin FI Type Intens Accum Rate
12/17/2017 15:27 Ice Warning 24.1F - 24F 32F 40 0% - - 99% 0 mhos 71 - None None - -
12/17/2017 15:24 Ice Warning 24.1F - 24F 32F 40 0% - - 99% 0 mhos 74 - None None - -
12/17/2017 15:14 Ice Warning 24.3F - 24F 32F 45 0% - - 99% 0 mhos 78 - None None - -
12/17/2017 15:12 Ice Warning 24.3F - 24F 32F 45 0% - - 99% 0 mhos 79 - None None - -
12/17/2017 15:03 Ice Warning 24.4F - 24F 32F 45 0% - - 99% 0 mhos 75 - None None - -
12/17/2017 14:57 Ice Warning 24.4F - 24F 32F 45 0% - - 99% 0 mhos 76 - None None - -
12/17/2017 14:53 Ice Warning 24.6F - 24F 32F 45 0% - - 99% 0 mhos 77 - None None - -
12/17/2017 14:43 Ice Warning 24.8F - 24F 32F 45 0% - - 99% 0 mhos 86 - None None - -
12/17/2017 14:42 Ice Warning 24.8F - 24F 32F 45 0% - - 99% 0 mhos 83 - None None - -
12/17/2017 14:33 Ice Warning 25.3F - 24F 32F 55 0% - - 99% 0 mhos 83 - None None - -
12/17/2017 14:27 Ice Warning 25.5F - 24F 32F 50 0% - - 99% 0 mhos 76 - None None - -
12/17/2017 14:23 Ice Warning 25.5F - 24F 32F 50 0% - - 99% 0 mhos 73 - None None - -
12/17/2017 14:13 Ice Warning 26.4F - 24F 32F 50 0% - - 99% 0 mhos 60 - None None - -
12/17/2017 14:12 Ice Warning 26.4F - 24F 32F 50 0% - - 99% 0 mhos 57 - None None - -
12/17/2017 14:03 Ice Warning 27.3F - 24F 32F 55 0% - - 99% 0 mhos 50 - None None - -
Date/Time
(MST)
Sf
Temp Chem Water Layer Surface Precipitation
Sfc Pvt Sub Frz Factor Pct Dpth DpthThk IcePct Cond Salin FI Type Intens Accum Rate
12/17/2017 13:57 Ice Warning 28.6F - 23F 32F 55 0% - - 100% 0 mhos 30 - None None - -
12/17/2017 13:53 Ice Warning 29.3F - 23F 32F 55 0% - - 99% 0 mhos 28 - None None - -
12/17/2017 13:43 Ice Warning 29.1F - 23F 32F 50 0% - - 100% 0 mhos 20 - None None - -
12/17/2017 13:42 Ice Warning 29.1F - 23F 32F 50 0% - - 100% 0 mhos 22 - None None - -
12/17/2017 13:33 Ice Warning 30.0F - 23F 32F 55 0% - - 99% 0 mhos 34 - None None - -
12/17/2017 13:27 Ice Warning 30.7F - 23F 32F 70 0% - - 99% 0 mhos 34 - None None - -
12/17/2017 13:23 Ice Warning 30.4F - 23F 32F 60 0% - - 99% 0 mhos 28 - None None - -
12/17/2017 13:13 Ice Warning 29.5F - 23F 32F 55 0% - - 100% 0 mhos 21 - None None - -
12/17/2017 13:12 Ice Warning 29.7F - 23F 32F 55 0% - - 100% 0 mhos 21 - None None - -
12/17/2017 13:03 Ice Warning 29.3F - 22F 32F 60 0% - - 100% 0 mhos 21 - None None - -
12/17/2017 12:57 Ice Warning 28.8F - 22F 32F 65 0% - - 100% 0 mhos 24 - None None - -
12/17/2017 12:53 Ice Warning 28.2F - 22F 32F 65 0% - - 100% 0 mhos 27 - None None - -
12/17/2017 12:43 Ice Warning 26.6F - 22F 32F 75 0% - - 100% 0 mhos 35 - None None - -
12/17/2017 12:42 Ice Warning 26.6F - 22F 32F 75 0% - - 100% 0 mhos 35 - None None - -
12/17/2017 12:33 Ice Warning 26.1F - 22F 32F 80 0% - - 100% 0 mhos 38 - None None - -
Date/Time
(MST)
Sf
Temp Chem Water Layer Surface Precipitation
Sfc Pvt Sub Frz Factor Pct Dpth DpthThk IcePct Cond Salin FI Type Intens Accum Rate
12/17/2017 12:27 Ice Warning 24.6F - 22F 32F 70 0% - - 100% 0 mhos 40 - None None - -
12/17/2017 12:23 Ice Warning 24.3F - 22F 32F 65 0% - - 100% 0 mhos 40 - None None - -
12/17/2017 12:13 Ice Warning 26.1F - 22F 32F 55 0% - - 100% 0 mhos 35 - None None - -
12/17/2017 12:12 Ice Warning 26.1F - 21F 32F 55 0% - - 100% 0 mhos 35 - None None - -
12/17/2017 12:03 Ice Warning 26.4F - 21F 32F 55 0% - - 100% 0 mhos 38 - None None - -
12/17/2017 11:57 Ice Warning 25.3F - 21F 32F 50 0% - - 100% 0 mhos 41 - None None - -
12/17/2017 11:52 Ice Warning 24.3F - 21F 32F 50 0% - - 100% 0 mhos 43 - None None - -
12/17/2017 11:42 Ice Warning 25.9F - 21F 32F 50 0% - - 100% 0 mhos 40 - None None - -
12/17/2017 11:42 Ice Warning 25.9F - 21F 32F 50 0% - - 100% 0 mhos 40 - None None - -
12/17/2017 11:32 Ice Warning 24.1F - 21F 32F 55 0% - - 100% 0 mhos 54 - None None - -
12/17/2017 11:27 Ice Warning 22.6F - 20F 32F 55 0% - - 100% 0 mhos 60 - None None - -
12/17/2017 11:22 Ice Warning 21.9F - 20F 32F 55 0% - - 100% 0 mhos 64 - None None - -
12/17/2017 11:12 Ice Warning 20.5F - 20F 32F 50 0% - - 100% 0 mhos 67 - None None - -
12/17/2017 11:12 Ice Warning 20.5F - 20F 32F 50 0% - - 100% 0 mhos 67 - None None - -
12/17/2017 11:02 Ice Warning 21.0F - 20F 32F 50 0% - - 100% 0 mhos 68 - None None - -
Date/Time
(MST)
Sf
Temp Chem Water Layer Surface Precipitation
Sfc Pvt Sub Frz Factor Pct Dpth DpthThk IcePct Cond Salin FI Type Intens Accum Rate
12/17/2017 10:57 Ice Warning 20.8F - 20F 32F 50 0% - - 100% 0 mhos 65 - None None - -
12/17/2017 10:52 Ice Warning 21.2F - 20F 32F 50 0% - - 100% 0 mhos 64 - None None - -
12/17/2017 10:42 Ice Warning 21.2F - 20F 32F 50 0% - - 100% 0 mhos 67 - None None - -
12/17/2017 10:42 Ice Warning 21.2F - 20F 32F 50 0% - - 100% 0 mhos 67 - None None - -
12/17/2017 10:32 Ice Warning 21.0F - 20F 32F 50 0% - - 100% 0 mhos 70 - None None - -
12/17/2017 10:27 Ice Warning 20.5F - 20F 32F 50 0% - - 100% 0 mhos 71 - None None - -
12/17/2017 10:22 Ice Warning 20.3F - 20F 32F 50 0% - - 100% 0 mhos 73 - None None - -
12/17/2017 10:12 Ice Warning 20.1F - 19F 32F 50 0% - - 100% 0 mhos 75 - None None - -
12/17/2017 10:12 Ice Warning 20.1F - 19F 32F 50 0% - - 100% 0 mhos 75 - None None - -
12/17/2017 10:02 Ice Warning 20.1F - 19F 32F 50 0% - - 100% 0 mhos 75 - None None - -
12/17/2017 09:57 Ice Warning 19.9F - 19F 32F 45 0% - - 100% 0 mhos 76 - None None - -
12/17/2017 09:52 Ice Warning 19.8F - 19F 32F 45 0% - - 100% 0 mhos 76 - None None - -
12/17/2017 09:42 Ice Warning 19.4F - 19F 32F 45 0% - - 100% 0 mhos 78 - None None - -
12/17/2017 09:42 Ice Warning 19.4F - 19F 32F 45 0% - - 100% 0 mhos 78 - None None - -
12/17/2017 09:32 Ice Warning 18.5F - 19F 32F 40 0% - - 100% 0 mhos 85 - None None - -
Date/Time
(MST)
Sf
Temp Chem Water Layer Surface Precipitation
Sfc Pvt Sub Frz Factor Pct Dpth DpthThk IcePct Cond Salin FI Type Intens Accum Rate
12/17/2017 09:27 Ice Warning 18.1F - 18F 32F 40 0% - - 100% 0 mhos 87 - None None - -
12/17/2017 09:22 Ice Warning 17.8F - 18F 32F 40 0% - - 100% 0 mhos 89 - None None - -
12/17/2017 09:12 Ice Warning 17.2F - 18F 32F 40 0% - - 100% 0 mhos 90 - None None - -
12/17/2017 09:12 Ice Warning 17.2F - 18F 32F 40 0% - - 100% 0 mhos 90 - None None - -
12/17/2017 09:01 Ice Warning 16.3F - 18F 32F 35 0% - - 100% 0 mhos 93 - None None - -
12/17/2017 08:57 Ice Warning 16.0F - 18F 32F 35 0% - - 100% 0 mhos 94 - None None - -
12/17/2017 08:51 Ice Warning 16.0F - 18F 32F 35 0% - - 100% 0 mhos 93 - None None - -
12/17/2017 08:42 Ice Warning 15.6F - 18F 32F 35 0% - - 100% 0 mhos 92 - None None - -
12/17/2017 08:41 Ice Warning 15.6F - 18F 32F 35 0% - - 100% 0 mhos 92 - None None - -
12/17/2017 08:31 Ice Warning 15.1F - 17F 32F 35 0% - - 100% 0 mhos 96 - None None - -
12/17/2017 08:27 Ice Warning 14.9F - 17F 32F 35 0% - - 100% 0 mhos 97 - None None - -
12/17/2017 08:21 Ice Warning 14.9F - 17F 32F 35 0% - - 100% 0 mhos 96 - None None - -
12/17/2017 08:12 Ice Warning 14.4F - 17F 32F 35 0% - - 100% 0 mhos 96 - None None - -
12/17/2017 08:11 Ice Warning 14.4F - 17F 32F 35 0% - - 100% 0 mhos 96 - None None - -
12/17/2017 08:01 Ice Warning 14.0F - 17F 32F 30 0% - - 100% 0 mhos 95 - None None - -
Date/Time
(MST)
Sf
Temp Chem Water Layer Surface Precipitation
Sfc Pvt Sub Frz Factor Pct Dpth DpthThk IcePct Cond Salin FI Type Intens Accum Rate
12/17/2017 07:57 Ice Warning 13.8F - 17F 32F 30 0% - - 100% 0 mhos 95 - None None - -
12/17/2017 07:51 Ice Warning 13.1F - 17F 32F 30 0% - - 100% 0 mhos 98 - None None - -
12/17/2017 07:42 Ice Warning 13.1F - 17F 32F 30 0% - - 100% 0 mhos 97 - None None - -
12/17/2017 07:41 Ice Warning 13.1F - 17F 32F 30 0% - - 100% 0 mhos 97 - None None - -
12/17/2017 07:31 Ice Warning 12.9F - 17F 32F 30 0% - - 100% 0 mhos 99 - None None - -
12/17/2017 07:27 Ice Warning 13.1F - 17F 32F 30 0% - - 100% 0 mhos 97 - None None - -
12/17/2017 07:21 Ice Warning 13.3F - 17F 32F 30 0% - - 100% 0 mhos 98 - None None - -
12/17/2017 07:12 Ice Warning 13.6F - 17F 32F 30 0% - - 100% 0 mhos 97 - None None - -
12/17/2017 07:11 Ice Warning 13.8F - 17F 32F 30 0% - - 100% 0 mhos 96 - None None - -
12/17/2017 07:01 Ice Warning 14.2F - 17F 32F 30 0% - - 100% 0 mhos 95 - None None - -
12/17/2017 06:57 Ice Warning 14.2F - 17F 32F 35 0% - - 100% 0 mhos 95 - None None - -
12/17/2017 06:51 Ice Warning 14.0F - 17F 32F 30 0% - - 100% 0 mhos 97 - None None - -
12/17/2017 06:42 Ice Warning 14.0F - 17F 32F 35 0% - - 100% 0 mhos 94 - None None - -
12/17/2017 06:41 Ice Warning 14.0F - 17F 32F 35 0% - - 100% 0 mhos 95 - None None - -
12/17/2017 06:31 Ice Warning 14.0F - 17F 32F 30 0% - - 100% 0 mhos 94 - None None - -
Date/Time
(MST)
Sf
Temp Chem Water Layer Surface Precipitation
Sfc Pvt Sub Frz Factor Pct Dpth DpthThk IcePct Cond Salin FI Type Intens Accum Rate
12/17/2017 06:27 Ice Warning 13.8F - 17F 32F 30 0% - - 100% 0 mhos 95 - None None - -
12/17/2017 06:21 Ice Warning 13.6F - 17F 32F 30 0% - - 100% 0 mhos 95 - None None - -
12/17/2017 06:12 Ice Warning 13.5F - 17F 32F 30 0% - - 100% 0 mhos 96 - None None - -
12/17/2017 06:11 Ice Warning 13.5F - 17F 32F 30 0% - - 100% 0 mhos 96 - None None - -
12/17/2017 06:01 Ice Warning 13.3F - 17F 32F 30 0% - - 100% 0 mhos 97 - None None - -
12/17/2017 05:57 Ice Warning 13.3F - 17F 32F 30 0% - - 100% 0 mhos 96 - None None - -
12/17/2017 05:50 Ice Warning 13.3F - 17F 32F 30 0% - - 100% 0 mhos 98 - None None - -
12/17/2017 05:42 Ice Warning 13.3F - 17F 32F 30 0% - - 100% 0 mhos 100 - None None - -
12/17/2017 05:40 Ice Warning 13.3F - 17F 32F 30 0% - - 100% 0 mhos 99 - None None - -
12/17/2017 05:30 Ice Warning 13.5F - 18F 32F 30 0% - - 100% 0 mhos 97 - None None - -
12/17/2017 05:27 Ice Warning 13.5F - 18F 32F 30 0% - - 100% 0 mhos 97 - None None - -
12/17/2017 05:20 Ice Warning 13.6F - 18F 32F 30 0% - - 100% 0 mhos 94 - None None - -
12/17/2017 05:12 Ice Warning 13.5F - 18F 32F 30 0% - - 100% 0 mhos 94 - None None - -
12/17/2017 05:10 Ice Warning 13.5F - 18F 32F 30 0% - - 100% 0 mhos 94 - None None - -
12/17/2017 05:00 Ice Warning 13.3F - 18F 32F 30 0% - - 100% 0 mhos 96 - None None - -
Date/Time
(MST)
Sf
Temp Chem Water Layer Surface Precipitation
Sfc Pvt Sub Frz Factor Pct Dpth DpthThk IcePct Cond Salin FI Type Intens Accum Rate
12/17/2017 04:57 Ice Warning 13.3F - 18F 32F 30 0% - - 100% 0 mhos 95 - None None - -
12/17/2017 04:50 Ice Warning 13.5F - 18F 32F 30 0% - - 100% 0 mhos 94 - None None - -
12/17/2017 04:42 Ice Warning 13.5F - 18F 32F 30 0% - - 100% 0 mhos 94 - None None - -
12/17/2017 04:40 Ice Warning 13.5F - 18F 32F 30 0% - - 100% 0 mhos 94 - None None - -
12/17/2017 04:30 Ice Warning 13.8F - 18F 32F 30 0% - - 100% 0 mhos 92 - None None - -
12/17/2017 04:27 Ice Warning 13.8F - 18F 32F 30 0% - - 100% 0 mhos 92 - None None - -
12/17/2017 04:20 Ice Warning 13.8F - 18F 32F 30 0% - - 100% 0 mhos 93 - None None - -
12/17/2017 04:12 Ice Warning 13.8F - 18F 32F 30 0% - - 100% 0 mhos 93 - None None - -
12/17/2017 04:10 Ice Warning 13.6F - 18F 32F 30 0% - - 100% 0 mhos 94 - None None - -
12/17/2017 04:00 Ice Warning 13.8F - 19F 32F 35 0% - - 100% 0 mhos 92 - None None - -
12/17/2017 03:57 Ice Warning 13.8F - 19F 32F 35 0% - - 100% 0 mhos 92 - None None - -
12/17/2017 03:50 Ice Warning 14.0F - 19F 32F 35 0% - - 100% 0 mhos 92 - None None - -
12/17/2017 03:42 Ice Warning 14.0F - 19F 32F 35 0% - - 100% 0 mhos 91 - None None - -
12/17/2017 03:40 Ice Warning 14.0F - 19F 32F 35 0% - - 100% 0 mhos 91 - None None - -
12/17/2017 03:30 Ice Warning 14.2F - 19F 32F 35 0% - - 100% 0 mhos 89 - None None - -
Date/Time
(MST)
Sf
Temp Chem Water Layer Surface Precipitation
Sfc Pvt Sub Frz Factor Pct Dpth DpthThk IcePct Cond Salin FI Type Intens Accum Rate
12/17/2017 03:27 Ice Warning 14.2F - 19F 32F 35 0% - - 100% 0 mhos 90 - None None - -
12/17/2017 03:20 Ice Warning 14.4F - 19F 32F 35 0% - - 100% 0 mhos 89 - None None - -
12/17/2017 03:12 Ice Warning 14.5F - 19F 32F 35 0% - - 100% 0 mhos 85 - None None - -
12/17/2017 03:10 Ice Warning 14.5F - 19F 32F 35 0% - - 100% 0 mhos 87 - None None - -
12/17/2017 03:00 Ice Warning 14.5F - 19F 32F 35 0% - - 100% 0 mhos 89 - None None - -
12/17/2017 02:57 Ice Warning 14.7F - 19F 32F 35 0% - - 100% 0 mhos 88 - None None - -
12/17/2017 02:50 Ice Warning 14.7F - 19F 32F 35 0% - - 100% 0 mhos 86 - None None - -
12/17/2017 02:42 Ice Warning 14.9F - 19F 32F 35 0% - - 100% 0 mhos 85 - None None - -
12/17/2017 02:39 Ice Warning 14.9F - 19F 32F 35 0% - - 100% 0 mhos 85 - None None - -
12/17/2017 02:29 Ice Warning 14.9F - 19F 32F 35 0% - - 100% 0 mhos 86 - None None - -
12/17/2017 02:27 Ice Warning 14.9F - 19F 32F 35 0% - - 100% 0 mhos 86 - None None - -
12/17/2017 02:19 Ice Warning 14.9F - 20F 32F 35 0% - - 100% 0 mhos 86 - None None - -
12/17/2017 02:12 Ice Warning 15.1F - 20F 32F 35 0% - - 100% 0 mhos 87 - None None - -
12/17/2017 02:09 Ice Warning 15.1F - 20F 32F 35 0% - - 100% 0 mhos 88 - None None - -
12/17/2017 01:59 Ice Warning 15.3F - 20F 32F 35 0% - - 100% 0 mhos 86 - None None - -
Date/Time
(MST)
Sf
Temp Chem Water Layer Surface Precipitation
Sfc Pvt Sub Frz Factor Pct Dpth DpthThk IcePct Cond Salin FI Type Intens Accum Rate
12/17/2017 01:57 Ice Warning 15.3F - 20F 32F 35 0% - - 100% 0 mhos 85 - None None - -
12/17/2017 01:49 Ice Warning 15.4F - 20F 32F 35 0% - - 100% 0 mhos 85 - None None - -
12/17/2017 01:42 Ice Warning 15.6F - 20F 32F 40 0% - - 100% 0 mhos 84 - None None - -
12/17/2017 01:39 Ice Warning 15.6F - 20F 32F 40 0% - - 100% 0 mhos 83 - None None - -
12/17/2017 01:29 Ice Warning 15.6F - 20F 32F 40 0% - - 100% 0 mhos 83 - None None - -
12/17/2017 01:27 Ice Warning 15.6F - 20F 32F 40 0% - - 100% 0 mhos 82 - None None - -
12/17/2017 01:19 Ice Warning 15.8F - 20F 32F 40 0% - - 100% 0 mhos 80 - None None - -
12/17/2017 01:12 Ice Warning 15.8F - 20F 32F 40 0% - - 100% 0 mhos 83 - None None - -
12/17/2017 01:09 Ice Warning 15.8F - 20F 32F 40 0% - - 100% 0 mhos 84 - None None - -
12/17/2017 00:59 Ice Warning 16.0F - 20F 32F 40 0% - - 100% 0 mhos 84 - None None - -
12/17/2017 00:57 Ice Warning 16.0F - 20F 32F 40 0% - - 100% 0 mhos 84 - None None - -
12/17/2017 00:49 Ice Warning 16.2F - 20F 32F 40 0% - - 100% 0 mhos 80 - None None - -
12/17/2017 00:42 Ice Warning 16.2F - 20F 32F 40 0% - - 100% 0 mhos 83 - None None - -
12/17/2017 00:39 Ice Warning 16.2F - 20F 32F 40 0% - - 100% 0 mhos 82 - None None - -
12/17/2017 00:29 Ice Warning 16.3F - 21F 32F 40 0% - - 100% 0 mhos 80 - None None - -
Date/Time
(MST)
Sf
Temp Chem Water Layer Surface Precipitation
Sfc Pvt Sub Frz Factor Pct Dpth DpthThk IcePct Cond Salin FI Type Intens Accum Rate
12/17/2017 00:27 Ice Warning 16.3F - 21F 32F 40 0% - - 100% 0 mhos 80 - None None - -
12/17/2017 00:19 Ice Warning 16.3F - 21F 32F 40 0% - - 100% 0 mhos 79 - None None - -
12/17/2017 00:12 Ice Warning 16.3F - 21F 32F 40 0% - - 100% 0 mhos 77 - None None - -
12/17/2017 00:09 Ice Warning 16.2F - 21F 32F 35 0% - - 100% 0 mhos 77 - None None - -
12/16/2017 23:59 Ice Warning 16.3F - 21F 32F 35 0% - - 100% 0 mhos 77 - None None - -
12/16/2017 23:57 Ice Warning 16.3F - 21F 32F 35 0% - - 100% 0 mhos 77 - None None - -
12/16/2017 23:49 Ice Warning 16.5F - 21F 32F 35 0% - - 100% 0 mhos 76 - None None - -
12/16/2017 23:42 Ice Warning 16.9F - 21F 32F 35 0% - - 100% 0 mhos 75 - None None - -
12/16/2017 23:39 Ice Warning 16.9F - 21F 32F 35 0% - - 100% 0 mhos 75 - None None - -
12/16/2017 23:29 Ice Warning 17.1F - 22F 32F 40 0% - - 100% 0 mhos 72 - None None - -
12/16/2017 23:27 Ice Warning 17.1F - 22F 32F 40 0% - - 100% 0 mhos 72 - None None - -
12/16/2017 23:18 Ice Warning 17.2F - 22F 32F 40 0% - - 100% 0 mhos 73 - None None - -
12/16/2017 23:12 Ice Warning 17.4F - 22F 32F 40 0% - - 100% 0 mhos 75 - None None - -
12/16/2017 23:08 Ice Warning 17.6F - 22F 32F 40 0% - - 100% 0 mhos 74 - None None - -
12/16/2017 22:58 Ice Warning 17.8F - 22F 32F 40 0% - - 100% 0 mhos 75 - None None - -
Date/Time
(MST)
Sf
Temp Chem Water Layer Surface Precipitation
Sfc Pvt Sub Frz Factor Pct Dpth DpthThk IcePct Cond Salin FI Type Intens Accum Rate
12/16/2017 22:57 Ice Warning 17.8F - 22F 32F 40 0% - - 100% 0 mhos 74 - None None - -
12/16/2017 22:48 Ice Warning 17.8F - 22F 32F 40 0% - - 100% 0 mhos 72 - None None - -
12/16/2017 22:42 Ice Warning 17.6F - 22F 32F 40 0% - - 100% 0 mhos 69 - None None - -
12/16/2017 22:38 Ice Warning 17.6F - 22F 32F 40 0% - - 100% 0 mhos 71 - None None - -
12/16/2017 22:28 Ice Warning 17.4F - 22F 32F 40 0% - - 100% 0 mhos 70 - None None - -
12/16/2017 22:27 Ice Warning 17.4F - 22F 32F 40 0% - - 100% 0 mhos 71 - None None - -
12/16/2017 22:18 Ice Warning 17.8F - 22F 32F 40 0% - - 100% 0 mhos 73 - None None - -
12/16/2017 22:12 Ice Warning 17.8F - 22F 32F 40 0% - - 100% 0 mhos 76 - None None - -
12/16/2017 22:08 Ice Warning 18.0F - 23F 32F 40 0% - - 100% 0 mhos 76 - None None - -
12/16/2017 21:58 Ice Warning 18.0F - 23F 32F 40 0% - - 100% 0 mhos 79 - None None - -
12/16/2017 21:57 Ice Warning 18.0F - 23F 32F 40 0% - - 100% 0 mhos 79 - None None - -
12/16/2017 21:48 Ice Warning 18.0F - 23F 32F 40 0% - - 100% 0 mhos 82 - None None - -
12/16/2017 21:42 Ice Warning 18.1F - 23F 32F 40 0% - - 100% 0 mhos 83 - None None - -
12/16/2017 21:38 Ice Warning 18.3F - 23F 32F 40 0% - - 100% 0 mhos 82 - None None - -
12/16/2017 21:28 Ice Warning 18.7F - 23F 32F 40 0% - - 100% 0 mhos 81 - None None - -
Date/Time
(MST)
Sf
Temp Chem Water Layer Surface Precipitation
Sfc Pvt Sub Frz Factor Pct Dpth DpthThk IcePct Cond Salin FI Type Intens Accum Rate
12/16/2017 21:27 Ice Warning 18.7F - 23F 32F 40 0% - - 100% 0 mhos 80 - None None - -
12/16/2017 21:18 Ice Warning 18.7F - 23F 32F 45 0% - - 100% 0 mhos 72 - None None - -
12/16/2017 21:12 Ice Warning 18.5F - 23F 32F 40 0% - - 100% 0 mhos 71 - None None - -
12/16/2017 21:08 Ice Warning 18.5F - 23F 32F 40 0% - - 100% 0 mhos 68 - None None - -
12/16/2017 20:58 Ice Warning 18.5F - 24F 32F 40 0% - - 100% 0 mhos 63 - None None - -
12/16/2017 20:57 Ice Warning 18.3F - 24F 32F 40 0% - - 100% 0 mhos 63 - None None - -
12/16/2017 20:48 Ice Warning 18.5F - 24F 32F 40 0% - - 100% 0 mhos 64 - None None - -
12/16/2017 20:42 Ice Warning 18.7F - 24F 32F 40 0% - - 100% 0 mhos 62 - None None - -
12/16/2017 20:38 Ice Warning 18.9F - 24F 32F 45 0% - - 100% 0 mhos 63 - None None - -
12/16/2017 20:28 Ice Warning 19.2F - 24F 32F 45 0% - - 100% 0 mhos 64 - None None - -
12/16/2017 20:27 Ice Warning 19.2F - 24F 32F 45 0% - - 100% 0 mhos 63 - None None - -
12/16/2017 20:18 Ice Warning 19.2F - 24F 32F 45 0% - - 100% 0 mhos 58 - None None - -
12/16/2017 20:12 Ice Warning 19.6F - 25F 32F 45 0% - - 100% 0 mhos 57 - None None - -
12/16/2017 20:07 Ice Warning 19.8F - 25F 32F 45 0% - - 100% 0 mhos 56 - None None - -
12/16/2017 19:57 Ice Warning 20.1F - 25F 32F 45 0% - - 100% 0 mhos 55 - None None - -
Date/Time
(MST)
Sf
Temp Chem Water Layer Surface Precipitation
Sfc Pvt Sub Frz Factor Pct Dpth DpthThk IcePct Cond Salin FI Type Intens Accum Rate
12/16/2017 19:57 Ice Warning 20.1F - 25F 32F 45 0% - - 100% 0 mhos 55 - None None - -
12/16/2017 19:47 Ice Warning 20.3F - 25F 32F 45 0% - - 100% 0 mhos 55 - None None - -
12/16/2017 19:42 Ice Warning 20.7F - 25F 32F 45 0% - - 100% 0 mhos 58 - None None - -
12/16/2017 19:37 Ice Warning 21.0F - 25F 32F 45 0% - - 100% 0 mhos 56 - None None - -
12/16/2017 19:27 Ice Warning 20.8F - 26F 32F 50 0% - - 100% 0 mhos 54 - None None - -
12/16/2017 19:27 Ice Warning 20.8F - 26F 32F 50 0% - - 100% 0 mhos 54 - None None - -
12/16/2017 19:17 Ice Warning 21.0F - 26F 32F 50 0% - - 100% 0 mhos 56 - None None - -
12/16/2017 19:12 Ice Warning 21.2F - 26F 32F 50 0% - - 100% 0 mhos 57 - None None - -
12/16/2017 19:07 Ice Warning 21.4F - 26F 32F 50 0% - - 100% 0 mhos 58 - None None - -
12/16/2017 18:57 Ice Warning 21.7F - 26F 32F 45 0% - - 100% 0 mhos 54 - None None - -
12/16/2017 18:57 Ice Warning 21.7F - 26F 32F 45 0% - - 100% 0 mhos 54 - None None - -
12/16/2017 18:47 Ice Warning 22.1F - 26F 32F 50 0% - - 100% 0 mhos 49 - None None - -
12/16/2017 18:42 Ice Warning 22.1F - 27F 32F 50 0% - - 100% 0 mhos 47 - None None - -
12/16/2017 18:37 Ice Warning 22.1F - 27F 32F 50 0% - - 100% 0 mhos 46 - None None - -
Change End Date:

Copyright © 1998-2015 Vaisala, Inc.
All Rights Reserved
Send comments about the data to:
SCAN Web ® is a registered trademark of Vaisala, Inc.
SCAN Web Version 6.0